Location: Copeville
(33.0796°N, 96.4155°W)
Time: 15:52:56
(UTC+00:00)

NOAA 12 - Pass Details

Date: 07 July 2022
Orbit: 795 x 815 km, 98.5° (Epoch: 16 August)

Event Time Altitude Azimuth Distance (km) Brightness Sun altitude
Rises 10:40:17 0° 42° (NE) 3,339 9.2 -8.6°
Reaches altitude 10° 10:45:35 10° 86° (E) 2,396 7.6 -7.6°
Maximum altitude 10:46:00 10° 91° (E) 2,388 7.5 -7.6°
Drops below altitude 10° 10:46:26 10° 96° (E) 2,394 7.4 -7.5°
Sets 10:51:40 0° 140° (SE) 3,311 7.4 -6.6°
